Terug naar catalogus

FENGYUN 1C DEB

ActiefSSO
NORAD 30668·DEBRIS·🇨🇳 China

Gelanceerd May 10, 1999 vanaf Taiyuan Satellite Launch Center

Loading…

Volgende Passages (komende 24 uur)

TLE

VersSource: Space-Track

Epoch: Sep 13, 2026, 17:50 UTC

1 30668U 99025AQA 26256.74374845  .00001754  00000-0  92308-3 0  9993
2 30668  99.1199 340.0822 0080208 192.3826 299.8378 14.13742386999395

Volg FENGYUN 1C DEB in realtime met AllMySat

Download on the App Store